Location: Estherville
(43.4020°N, 94.8330°W)
Time: 02:25:55
(UTC-05:00)

N. Korean satellite - Visible Passes

Search period start: 21 March 2019 00:00
Search period end: 31 March 2019 00:00
Orbit: 456 x 510 km, 97.2° (Epoch: 20 March)

Date Brightness Start Highest point End Pass type
(mag) Time Alt. Az. Time Alt. Az. Time Alt. Az.
21 Mar 10.3 06:25:25 10° ENE 06:26:38 11° E 06:27:51 10° ESE visible
24 Mar 9.7 06:43:06 10° NE 06:45:44 19° E 06:48:24 10° SE visible
28 Mar 9.8 06:37:22 10° NE 06:39:48 17° E 06:42:15 10° SE visible
